This demonstration page uses our WeatherBlox Daily Observations layout. Learn more.

Left ArrowRight Arrow

31.84235, -102.49876

Hourly Observations for May 7, 2022

Temp ( °F °C ) Dew Point ( °F °C ) Humidity (%) Winds ( mph kmh ) Pressure ( in mb ) Visibility ( mi km ) Precip ( " mm )
12:53 am 00:53 Clear 75 23.9 15 -9.4 10 10 WSW 5 7 29.70 1006 10 16 0.00 0.00
1:53 am 01:53 Clear 71 21.7 14 -10 11 11 WSW 3 6 29.69 1006 10 16 0.00 0.00
2:53 am 02:53 Clear 71 21.7 18 -7.8 13 13 SSW 9 15 29.68 1005 10 16 0.00 0.00
3:53 am 03:53 Clear 70 21.1 35 1.7 28 28 SSW 8 13 29.68 1005 10 16 0.00 0.00
4:53 am 04:53 Clear 69 20.6 40 4.4 35 35 SW 8 13 29.67 1005 10 16 0.00 0.00
5:53 am 05:53 Clear 68 20 41 5 38 38 SSW 6 9 29.67 1005 10 16 0.00 0.00
6:53 am 06:53 Clear 67 19.4 43 6.1 42 42 SW 5 7 29.68 1005 10 16 0.00 0.00
7:53 am 07:53 Sunny 66 18.9 40 4.4 39 39 WSW 5 7 29.70 1006 10 16 0.00 0.00
8:53 am 08:53 Sunny 75 23.9 33 0.6 22 22 SSW 9 15 29.70 1006 10 16 0.00 0.00
9:53 am 09:53 Sunny 83 28.3 19 -7.2 9 9 WSW 13 20 29.69 1006 10 16 0.00 0.00
10:53 am 10:53 Sunny 89 31.7 17 -8.3 7 7 WSW 13 20 29.68 1005 10 16 0.00 0.00
11:53 am 11:53 Sunny 95 35 17 -8.3 6 6 WSW 15 24 29.66 1004 10 16 0.00 0.00
12:53 pm 12:53 Sunny 98 36.7 15 -9.4 5 5 W 13 20 29.63 1004 10 16 0.00 0.00
1:53 pm 13:53 Sunny 99 37.2 15 -9.4 5 5 WSW 12 19 29.61 1003 10 16 0.00 0.00
2:53 pm 14:53 Sunny 103 39.4 18 -7.8 5 5 WSW 22 35 29.57 1002 9 14 0.00 0.00
3:53 pm 15:53 Sunny 102 38.9 19 -7.2 5 5 W 24 39 29.56 1001 10 16 0.00 0.00
4:53 pm 16:53 Sunny 102 38.9 17 -8.3 5 5 WSW 24 39 29.54 1000 10 16 0.00 0.00
5:53 pm 17:53 Sunny 101 38.3 16 -8.9 4 4 W 24 39 29.52 1000 10 16 0.00 0.00
6:53 pm 18:53 Sunny 99 37.2 14 -10 4 4 W 20 31 29.52 1000 10 16 0.00 0.00
7:53 pm 19:53 Sunny 96 35.6 13 -10.6 5 5 W 14 22 29.53 1000 10 16 0.00 0.00
8:53 pm 20:53 Clear 91 32.8 11 -11.7 5 5 W 10 17 29.54 1000 10 16 0.00 0.00
9:53 pm 21:53 Clear 85 29.4 9 -12.8 5 5 W 7 11 29.54 1001 10 16 0.00 0.00
10:53 pm 22:53 Clear 82 27.8 9 -12.8 6 6 W 8 13 29.55 1001 10 16 0.00 0.00
11:53 pm 23:53 Clear 83 28.3 9 -12.8 6 6 W 10 17 29.54 1001 10 16 0.00 0.00

Powered by AerisWeather